Weather in Yelyuzan

Russia / Penza Oblast     53°08′59″N   46°07′14″E
temp.,
°C
wind,
m/s
gust,
m/s
humid.,
%
clouds,
%
prec.,
mm/h
press.,
hPa
HPBL,
m
1 march, mon
mon100:00−18nnw239643 0.0 101924
03:00−19nw239721 0.0 102127
06:00−19nw23970 0.0 102322
09:00−15nw25930 0.0 1024196
12:00−9wnw248767 0.0 1024407
15:00−8wnw468980 0.0 1024449
18:00−13w339785 0.0 102351
21:00−13wsw379888 0.0 1022149
2 march, tue
tue200:00−10wsw41196100 0.0 1019310
03:00−7wsw61294100 0.1 1016502
06:00−4wsw61495100 1.2 1012667
09:00−2wsw71395100 2.3 1010709
12:000wsw71397100 0.4 1006772
15:000w61298100 2.4 1005762
18:000wnw51093100 1.2 1004720
21:00−5wnw369691 1.3 1005105
3 march, wed
wed300:00−5wnw379797 0.1 1005156
03:00−7wnw369692 0.2 1006104
06:00−8wnw369783 0.1 1006110
09:00−5nw489383 0.1 1007386
12:00−3nw578895 0.1 1008872
15:00−5nw698698 0.3 1009945
18:00−7nw51192100 0.1 1010544
21:00−8wnw4119396 0.1 1013328
4 march, thu
thu400:00−10w489672 0.1 1012180
03:00−8w4109582 0.2 1011343
06:00−7wsw4119685 0.3 1011416
09:00−4wsw6119192 0.4 1009707
12:00−3wsw81391100 0.2 1007946
15:00−1sw81590100 0.3 1005820
18:00−1wsw81590100 0.0 10021092
21:00−1wsw81786100 0.1 10011097
5 march, fri
fri500:00−1wsw81586100 0.1 10001028
03:00−1wsw81594100 0.3 1001993
06:00−2nw4994100 0.8 1004418
09:00−4nw369088 0.8 1008382
12:00−2nw237749 0.0 1010631
15:00−2nw237660 0.0 1011732
18:00−7nw228674 0.0 101321
21:00−10n128685 0.0 101521